星链-11076 [DTC] (STARLINK-11076 [DTC] )

导读

STARLINK-11076是美国太空探索技术公司Starlink星链互联网卫星星座的一员,于2024年1月3日发射升空。星链项目旨在构建全球卫星互联网星座,为全球偏远地区、海洋等场景提供高速网络接入服务,STARLINK-11076入轨后将补充星链星座的覆盖能力,提升星座服务的稳定性与带宽表现。

基本信息
目录编号:
58709
目录名称:
STARLINK-11076
国际标识:
2024-002E
轨道中心:
EARTH
卫星名称:
星链-11076 [DTC]
卫星全名:
星链-11076 [DTC] (STARLINK-11076 [DTC] )
卫星状态:
在轨 (已飞行936 天)
发射日期:
2024-01-03 UTC
国别 :
美国 (US)
星等 :
--
轨道信息
数据来源 国际轨道数据
星历时间: 2026-07-27T14:47:17+0800
16小时前
查看轨道信息
半长轴: 6737.884km
偏心率: 0.0001422
轨道倾角: 53.161°
近地点辐角 82.210°
升交点赤经 305.761°
平近点角 277.908°
近地点: 358.788km
远地点: 360.706km
周期: 91.737分钟
每日圈数: 15.697032
详细信息
固有亮度:
5
最大亮度:
0.6
卫星平台:
Starlink v2.0 mini
覆盖范围:
全球
运营商:
太空探索技术公司
运营商所在国:
美国
制造商(研发单位):
太空探索技术公司
制造商所在国:
美国
使用方式:
暂无
卫星简介
星链(Starlink)计划是由太空探索技术公司(SpaceX)提出的一个巨型低轨卫星互联网星座项目,计划在2019年至2024年间在太空搭建由约1.2万颗卫星组成的“星链”网络,其中1584颗将部署在地球上空550千米处的近地轨道,并从2020年开始工作。该卫星仍在工作。
2D轨道图
3D轨道图
轨道高度分析图
轨道倾角分析图
轨道综合分析图
查看轨道综合分析图